Location: ??
(35.1714°N, 128.2806°E)
Time: 19:48:11
(UTC+00:00)

Tiangong - Pass Details

Date: 26 June 2021
Orbit: 373 x 385 km, 41.5° (Epoch: 04 August)

Event Time Altitude Azimuth Distance (km) Brightness Sun altitude
Exits shadow 16:55:17 13° 50° (NE) 1,225 4.3 -28.1°
Drops below altitude 10° 16:55:44 10° 53° (NE) 1,387 4.6 -28.1°
Sets 16:57:56 0° 64° (ENE) 2,242 5.6 -27.9°
